Nashua, NH

3:40 PM EST on December 11, 2019 (GMT -0500)
Boire

Weather History for KASH - June, 2019

Change the Weather History Date:

Sunday, June 9, 2019

  Actual Average Record
Temperature  
Mean Temperature 66 °F -  
Max Temperature 82 °F 76 °F 95 °F (2004)
Min Temperature 50 °F 51 °F 35 °F (1957)
Growing Degree Days 16 (Base 50)    
Moisture  
Dew Point 48 °F    
Average Humidity 55    
Maximum Humidity 96    
Minimum Humidity 23    
Precipitation  
Precipitation 0.00 in - - ()
Sea Level Pressure  
Sea Level Pressure 30.33 in    
Wind  
Wind Speed 2 mph ()    
Max Wind Speed 6 mph    
Max Gust Speed -    
Visibility 10.0 miles    
Events      
Averages and records for this station are not official NWS values.
T = Trace of Precipitation, MM = Missing Value Source: Averaged Metar Reports

Daily Weather History Graph

Daily Weather History Graph

Search for Another Location

Airport or City:

Astronomy

Jun. 09, 2019 Rise Set
Actual Time 5:07 AM EDT 8:23 PM EDT
Civil Twilight 4:32 AM EDT 8:57 PM EDT
Nautical Twilight 3:47 AM EDT 9:43 PM EDT
Astronomical Twilight 2:53 AM EDT 10:38 PM EDT
Moon 11:47 AM EDT (6/9) 12:57 AM EDT (6/9)
Length of Visible Light 16h 25m
Length of Day
15h 15m
Waxing Crescent, 43% of the Moon is Illuminated
Jun 9
Waxing Crescent
Jun 10
First Quarter
Jun 17
Full
Jun 25
Last Quarter
Jul 2
New

Hourly Weather History & Observations

Time (EDT) Temp. Dew Point Humidity Pressure Visibility Wind Dir Wind Speed Gust Speed Precip Events Conditions
1:56 AM 53.1 °F 48.9 °F 86% 30.29 in 10.0 mi Calm Calm - N/A   Clear
2:56 AM 52.0 °F 50.0 °F 93% 30.32 in 10.0 mi Calm Calm - N/A   Clear
3:56 AM 51.1 °F 48.9 °F 92% 30.33 in 10.0 mi NW 5.8 mph - N/A   Clear
4:56 AM 51.1 °F 50.0 °F 96% 30.35 in 10.0 mi West 4.6 mph - N/A   Clear
5:56 AM 50.0 °F 48.0 °F 93% 30.36 in 10.0 mi NW 4.6 mph - N/A   Clear
6:56 AM 54.0 °F 48.9 °F 83% 30.38 in 10.0 mi Calm Calm - N/A   Clear
7:56 AM 60.1 °F 46.9 °F 62% 30.38 in 10.0 mi NNE 4.6 mph - N/A   Clear
8:56 AM 64.0 °F 50.0 °F 60% 30.39 in 10.0 mi Variable 4.6 mph - N/A   Clear
9:56 AM 66.0 °F 51.1 °F 59% 30.39 in 10.0 mi Calm Calm - N/A   Clear
10:56 AM 70.0 °F 52.0 °F 53% 30.38 in 10.0 mi Variable 4.6 mph - N/A   Clear
11:56 AM 73.0 °F 51.1 °F 46% 30.38 in 10.0 mi Variable 3.5 mph - N/A   Clear
12:56 PM 75.9 °F 48.0 °F 37% 30.36 in 10.0 mi Variable 4.6 mph - N/A   Clear
1:56 PM 78.1 °F 48.9 °F 36% 30.34 in 10.0 mi SE 4.6 mph - N/A   Clear
2:56 PM 80.1 °F 46.9 °F 31% 30.32 in 10.0 mi Calm Calm - N/A   Clear
3:56 PM 81.0 °F 44.1 °F 27% 30.31 in 10.0 mi Variable 4.6 mph - N/A   Clear
4:56 PM 81.0 °F 39.9 °F 23% 30.30 in 10.0 mi Calm Calm - N/A   Clear
5:56 PM 81.0 °F 43.0 °F 26% 30.29 in 10.0 mi Calm Calm - N/A   Clear
6:56 PM 80.1 °F 46.9 °F 31% 30.28 in 10.0 mi Calm Calm - N/A   Clear
7:56 PM 75.0 °F 50.0 °F 41% 30.29 in 10.0 mi Calm Calm - N/A   Clear
8:56 PM 72.0 °F 48.9 °F 44% 30.29 in 10.0 mi Variable 4.6 mph - N/A   Clear
9:56 PM 69.1 °F 48.0 °F 47% 30.31 in 10.0 mi Variable 3.5 mph - N/A   Clear
10:56 PM 66.9 °F 48.0 °F 51% 30.31 in 10.0 mi Calm Calm - N/A   Clear
11:56 PM 64.0 °F 48.9 °F 58% 30.29 in 10.0 mi Calm Calm - N/A   Clear